Location: Le Petit-Vavre
(46.5081°N, 1.5239°E)
Time: 23:15:01
(UTC+00:00)

SME Rocket - Visible Passes

Search period start: 24 June 2021 00:00
Search period end: 04 July 2021 00:00
Orbit: 550 x 2651 km, 99.9° (Epoch: 24 June)

Date Brightness Start Highest point End Pass type
(mag) Time Alt. Az. Time Alt. Az. Time Alt. Az.
24 Jun 7.2 03:19:23 10° E 03:24:33 23° NE 03:31:25 10° N visible
24 Jun 8.2 21:21:44 10° N 21:30:11 24° NW 21:39:55 10° W visible
25 Jun 7.5 02:59:46 10° E 03:04:42 20° NE 03:11:00 10° N visible
25 Jun 8.0 21:01:06 10° N 21:10:30 28° NW 21:21:20 10° W visible
25 Jun 8.6 22:59:47 10° N 23:02:29 11° NNW 23:05:19 10° NW visible
26 Jun 7.7 02:40:19 10° ENE 02:44:55 17° NNE 02:50:34 10° N visible
26 Jun 7.8 20:40:31 10° N 20:50:47 33° NW 21:02:33 10° WSW visible
26 Jun 8.6 22:38:30 10° N 22:43:02 13° NNW 22:47:57 10° NW visible
27 Jun 7.9 02:21:03 10° ENE 02:25:13 15° NNE 02:30:07 10° N visible
27 Jun 7.6 20:19:59 10° N 20:31:02 38° NW 20:43:35 10° WSW visible
27 Jun 8.5 22:17:36 10° N 22:23:33 15° NNW 22:30:06 10° WNW visible
28 Jun 8.1 02:01:59 10° NE 02:05:35 13° NNE 02:09:39 10° N visible
28 Jun 8.5 21:56:53 10° N 22:04:03 18° NNW 22:12:01 10° WNW visible
29 Jun 8.2 01:43:09 10° NE 01:46:01 12° NNE 01:49:09 10° N visible
29 Jun 8.4 21:36:15 10° N 21:44:31 21° NW 21:53:42 10° WNW visible
30 Jun 8.3 01:24:34 10° NNE 01:26:30 11° NNE 01:28:33 10° N visible
30 Jun 7.3 03:12:23 10° E 03:18:29 27° NE 03:26:41 10° N visible
30 Jun 8.2 21:15:41 10° N 21:24:56 25° NW 21:35:12 10° W visible
30 Jun 8.7 23:13:39 10° N 23:16:24 11° NNW 23:19:16 10° NNW visible
01 Jul 7.5 02:52:45 10° E 02:58:42 23° NE 03:06:23 10° N visible
01 Jul 8.1 20:55:09 10° N 21:05:20 29° NW 21:16:31 10° W visible
01 Jul 8.6 22:52:40 10° N 22:57:02 13° NNW 23:01:40 10° NW visible
02 Jul 7.7 02:33:16 10° ENE 02:39:00 20° NE 02:46:06 10° N visible
02 Jul 7.9 20:34:40 10° N 20:45:42 34° NW 20:57:38 10° WSW visible
02 Jul 8.6 22:31:58 10° N 22:37:38 14° NNW 22:43:46 10° NW visible
03 Jul 7.9 02:13:58 10° ENE 02:19:21 17° NNE 02:25:49 10° N visible
03 Jul 7.7 20:14:13 10° N 20:26:00 39° NW 20:38:33 10° WSW visible
03 Jul 8.6 22:11:22 10° N 22:18:14 17° NNW 22:25:38 10° WNW visible
